Regional Weather Roundup
Issued by NWS

Home | Current Version | Previous Version | Text Only | Print | Product List | Glossary On
Versions: 1 2 3 4 5 6 7 8 9 10 11 12 13 14 15 16 17 18 19 20 21 22 23 24 25 26 27 28 29 30 31 32 33 34 35 36 37 38 39 40 41 42 43 44 45 46 47 48 49 50
000
ASUS43 KLOT 231109
RWRIL

ILLINOIS REGIONAL WEATHER ROUNDUP
NATIONAL WEATHER SERVICE CHICAGO/ROMEOVILLE IL
600 AM CDT SAT SEP 23 2017

NOTE: "FAIR" INDICATES FEW OR NO CLOUDS BELOW 12,000 FEET WITH NO
SIGNIFICANT WEATHER AND/OR OBSTRUCTIONS TO VISIBILITY.

* THESE STATIONS ARE NOT UNDER NWS QUALITY CONTROL. THEY ALSO MAY NOT
  REPORT WEATHER SUCH AS PRECIPITATION OR FOG.

ILZ001-002-007-009-015-016-024-231200-
NORTHWEST ILLINOIS

CITY           SKY/WX    TMP DP  RH WIND       PRES   REMARKS
MOLINE         CLEAR     69  63  81 CALM      30.02R
STERLING*      CLEAR     66  65  96 E3        30.04R
SAVANNA*       PTCLDY    64  64  97 CALM      30.03S
$$

ILZ003-004-008-010-011-017-018-231200-
NORTH CENTRAL ILLINOIS

CITY           SKY/WX    TMP DP  RH WIND       PRES   REMARKS
ROCKFORD       CLEAR     68  64  87 CALM      30.06R
FREEPORT*      PTCLDY    69  63  82 CALM      30.06R
ROCHELLE*      CLEAR     66  64  94 SE6       30.06R
DE KALB*       PTCLDY    66  64  91 SE5       30.07R
PERU*          PTCLDY    69  64  82 SW6       30.05R
$$

ILZ005-006-012>014-019>023-231200-
NORTHEAST ILLINOIS

CITY           SKY/WX    TMP DP  RH WIND       PRES   REMARKS
CHICAGO-OHARE  PTCLDY    74  65  73 CALM      30.06R
CHICAGO-MIDWAY CLEAR     76  66  71 S5        30.06R
AURORA         CLEAR     67  65  93 CALM      30.06R
LANSING*       CLEAR     67  66  96 CALM      30.07R
JOLIET*        CLEAR     67  67  98 CALM      30.06R
WAUKEGAN       CLEAR     68  67  96 CALM      30.06R FOG
DUPAGE AIRPORT CLEAR     66  66 100 CALM      30.06R FOG
KANKAKEE*      CLEAR     66  65  97 CALM      30.08R
WHEELING       CLEAR     70  68  93 CALM      30.07R
MORRIS*        CLEAR     69  65  88 SE5       30.05R
ROMEOVILLE*    CLEAR     69  65  89 SE6       30.07R
NORTHERLY ISL    N/A     79  63  57 S3          N/A  HX  80
$$

LMZ740>746-231200-
SOUTHERN LAKE MICHIGAN

STATION/POSITION SKY/WX   TEMP    WIND        PRES    VSBY  WAVE
                          AIR SEA DIR/SP/G                  HT/PER
                          (F)     (DEG/KT/KT) (MB)    (MI)  (FT/S)
SOUTHERN BUOY              72 70  140/  6/  6 1018.0R         0
WILMETTE HARBOR            74 72  190/  2/  4   N/A           0
HARRISON CRIB              79     190/  9/  9   N/A
BURNHAM HARBOR             78                   N/A
CALUMET HARBOR             74     190/  2/  3 1017.5R
BURNS HARBOR               73     200/  4/  6 1018.3R
MICHIGAN CITY              74     130/  5/  7   N/A
MICHIGAN CITY 6N           72 71  350/  2/  4   N/A           0
ST. JOSEPH                 73 71  260/  4/  6 1018.3          1
$$

ILZ025>027-034>036-040-047-049-050-058-095>099-231200-
WEST-CENTRAL ILLINOIS

CITY           SKY/WX    TMP DP  RH WIND       PRES   REMARKS
QUINCY         CLEAR     68  62  81 SE6       30.02R
GALESBURG*     CLEAR     67  64  87 CALM      30.04S
MACOMB*        PTCLDY    61  60  96 CALM      30.05R
JACKSONVILLE*  CLEAR     66  62  88 CALM      30.03S
PITTSFIELD*    CLEAR     66  63  88 CALM      30.04S
$$

ILZ028>032-037-038-041>044-048-051>054-059>061-231200-
CENTRAL ILLINOIS

CITY           SKY/WX    TMP DP  RH WIND       PRES   REMARKS
PONTIAC        CLEAR     66  66  98 CALM      30.07R
BLOOMINGTON    CLEAR     69  65  86 S6        30.07R
DECATUR        CLEAR     65  63  93 E3        30.06R
PEORIA         CLEAR     70  66  87 CALM      30.04R
LACON*         CLEAR     68  65  89 SE3       30.03S
LINCOLN*       CLEAR     66  65  96 CALM      30.05R
SPRINGFIELD    CLEAR     71  66  84 S3        30.05R
TAYLORVILLE    CLEAR     67  65  92 CALM      30.05S
$$

ILZ033-039-045-046-055>057-062-063-231200-
EAST-CENTRAL ILLINOIS

CITY           SKY/WX    TMP DP  RH WIND       PRES   REMARKS
CHAMPAIGN      CLEAR     67  64  90 CALM      30.07R
RANTOUL*       CLEAR     69  67  94 CALM      30.08R
MATTOON        CLEAR     67  67 100 S3        30.06R
PARIS*         CLEAR     65  65 100 CALM      30.08R FOG
$$

ILZ079-100>102-231200-
SOUTHWEST ILLINOIS

CITY           SKY/WX    TMP DP  RH WIND       PRES   REMARKS
ALTON          CLEAR     64  64 100 CALM      30.04R
BELLEVILLE     CLEAR     65  64  96 CALM      30.02R
CAHOKIA*       CLEAR     66  63  90 CALM      30.03R
SPARTA*        CLEAR     65  64  97 CALM      30.04S
$$

ILZ064>066-069>071-074>076-080>082-084>086-088>090-092>094-231200-
SOUTH-CENTRAL ILLINOIS

CITY           SKY/WX    TMP DP  RH WIND       PRES   REMARKS
CARBONDALE     FOG       63  63 100 CALM      30.03S VSB 1/4
CAIRO*         FOG       65  65 100 CALM      30.03R VSB 3/4
EFFINGHAM*     CLEAR     65  65 100 CALM      30.07S FOG
MARION           N/A     64  64 100 CALM      30.05R FOG
MT. VERNON       N/A     63  63 100 CALM      30.05R
CENTRALIA*     CLEAR     64  64  99 CALM      30.04R
SALEM*         CLEAR     66  64  93 CALM      30.05R FOG
METROPOLIS*    CLEAR     64  64  97 CALM      30.04R FOG
$$

ILZ067-068-072-073-078-083-087-091-231200-
SOUTHEAST ILLINOIS

CITY           SKY/WX    TMP DP  RH WIND       PRES   REMARKS
LAWRENCEVILLE  CLEAR     66  66 100 NE3       30.06R FOG
FLORA*         CLEAR     68  67  97 CALM      30.06R FOG
FAIRFIELD*     CLEAR     63  62  98 CALM      30.04S
HARRISBURG*    CLEAR     63  63  99 CALM      30.05R FOG
ROBINSON*      FOG       62  62 100 CALM      30.07R VSB 1/2
CARMI*         PTCLDY    63  63 100 CALM      30.04R FOG
$$

ABBREVIATIONS USED IN REMARKS
   TC - TEMPERATURE IN CELSIUS
  WCI - WIND CHILL INDEX
   HX - HEAT INDEX
  VSB - VISIBILITY
$$





USA.gov is the U.S. government's official web portal to all federal, state and local government web resources and services.